Cambridge, MD

11:30 AM EDT on June 25, 2017 (GMT -0400)
Cambridge-Dorchester

Weather History for KCGE - January, 2013

Change the Weather History Date:

Friday, January 25, 2013

  Actual Average (KESN) Record (KESN)
Temperature  
Mean Temperature 22 °F -  
Max Temperature 28 °F 46 °F 74 °F (1950)
Min Temperature 17 °F 32 °F 8 °F (1963)
Degree Days  
Heating Degree Days 42    
Moisture  
Dew Point 14 °F    
Average Humidity 68    
Maximum Humidity 100    
Minimum Humidity 50    
Precipitation  
Precipitation 0.00 in - - ()
Sea Level Pressure  
Sea Level Pressure 30.32 in    
Wind  
Wind Speed 5 mph (WSW)    
Max Wind Speed 12 mph    
Max Gust Speed 17 mph    
Visibility 9 miles    
Events      
Averages and records for this station are not official NWS values.
T = Trace of Precipitation, MM = Missing Value Source: NWS Daily Summary

Daily Weather History Graph

Daily Weather History Graph

Search for Another Location

Airport or City:

Trip Planner

Search our weather history database for the weather conditions in past years. The results will help you decide how hot, cold, wet, or windy it might be!

Date:

Astronomy

Jan. 25, 2013 Rise Set
Actual Time 7:14 AM EST 5:18 PM EST
Civil Twilight 6:46 AM EST 5:46 PM EST
Nautical Twilight 6:14 AM EST 6:19 PM EST
Astronomical Twilight 5:43 AM EST 6:50 PM EST
Moon 4:13 PM EST 5:52 AM EST
Length of Visible Light 11h 00m
Length of Day
10h 03m
Waxing Gibbous, 98% of the Moon is Illuminated
Jan 25
Waxing Gibbous
Jan 26
Full
Feb 3
Last Quarter
Feb 10
New
Feb 17
First Quarter

Hourly Weather History & Observations

Time (EST) Temp. Windchill Dew Point Humidity Pressure Visibility Wind Dir Wind Speed Gust Speed Precip Events Conditions
12:14 AM 24.8 °F 15.3 °F 8.6 °F 50% 30.50 in 10.0 mi NW 9.2 mph - N/A   Clear
12:36 AM 24.8 °F 14.0 °F 8.6 °F 50% 30.49 in 10.0 mi NW 11.5 mph 16.1 mph N/A   Clear
12:57 AM 24.8 °F 16.9 °F 8.6 °F 50% 30.49 in 10.0 mi NW 6.9 mph - N/A   Clear
1:18 AM 24.8 °F 16.1 °F 8.6 °F 50% 30.50 in 10.0 mi NW 8.1 mph - N/A   Clear
1:40 AM 24.8 °F 15.3 °F 8.6 °F 50% 30.49 in 10.0 mi NW 9.2 mph - N/A   Clear
2:01 AM 24.8 °F 15.3 °F 8.6 °F 50% 30.49 in 10.0 mi NW 9.2 mph - N/A   Clear
2:22 AM 24.8 °F 17.9 °F 8.6 °F 50% 30.49 in 10.0 mi NW 5.8 mph - N/A   Clear
2:44 AM 23.0 °F 14.7 °F 8.6 °F 54% 30.49 in 10.0 mi NNW 6.9 mph - N/A   Clear
3:05 AM 23.0 °F 13.9 °F 8.6 °F 54% 30.49 in 10.0 mi NNW 8.1 mph - N/A   Clear
3:26 AM 23.0 °F 14.7 °F 10.4 °F 59% 30.48 in 10.0 mi NNW 6.9 mph - N/A   Clear
3:47 AM 23.0 °F 14.7 °F 10.4 °F 59% 30.48 in 10.0 mi NNW 6.9 mph - N/A   Clear
4:09 AM 23.0 °F 14.7 °F 10.4 °F 59% 30.48 in 10.0 mi NNW 6.9 mph - N/A   Clear
4:30 AM 23.0 °F 15.8 °F 10.4 °F 59% 30.46 in 10.0 mi NNW 5.8 mph - N/A   Clear
4:51 AM 23.0 °F 18.4 °F 10.4 °F 59% 30.48 in 10.0 mi North 3.5 mph - N/A   Clear
5:13 AM 23.0 °F 18.4 °F 8.6 °F 54% 30.48 in 10.0 mi North 3.5 mph - N/A   Clear
5:34 AM 23.0 °F 17.0 °F 8.6 °F 54% 30.48 in 10.0 mi North 4.6 mph - N/A   Clear
5:55 AM 23.0 °F 17.0 °F 8.6 °F 54% 30.49 in 10.0 mi North 4.6 mph - N/A   Clear
6:17 AM 23.0 °F 18.4 °F 8.6 °F 54% 30.48 in 10.0 mi North 3.5 mph - N/A   Clear
6:38 AM 21.2 °F 16.4 °F 8.6 °F 58% 30.47 in 10.0 mi NNE 3.5 mph - N/A   Clear
6:59 AM 21.2 °F 16.4 °F 8.6 °F 58% 30.46 in 10.0 mi NNE 3.5 mph - N/A   Clear
7:20 AM 21.2 °F - 8.6 °F 58% 30.48 in 10.0 mi Calm Calm - N/A   Clear
7:42 AM 21.2 °F - 8.6 °F 58% 30.46 in 10.0 mi Calm Calm - N/A   Clear
8:03 AM 21.2 °F - 8.6 °F 58% 30.47 in 10.0 mi Calm Calm - N/A   Clear
8:24 AM 23.0 °F - 8.6 °F 54% 30.47 in 10.0 mi Calm Calm - N/A   Clear
9:07 AM 23.0 °F 18.4 °F 8.6 °F 54% 30.46 in 10.0 mi ESE 3.5 mph - N/A   Clear
9:49 AM 24.8 °F - 10.4 °F 54% 30.44 in 10.0 mi Calm Calm - N/A   Clear
10:10 AM 24.8 °F - 10.4 °F 54% 30.43 in 10.0 mi Calm Calm - N/A   Clear
10:31 AM 24.8 °F 19.1 °F 10.4 °F 54% 30.41 in 10.0 mi SE 4.6 mph - N/A   Clear
10:53 AM 24.8 °F 20.5 °F 10.4 °F 54% 30.41 in 10.0 mi ESE 3.5 mph - N/A   Clear
11:14 AM 26.6 °F 22.6 °F 10.4 °F 51% 30.38 in 10.0 mi WSW 3.5 mph - N/A   Clear
11:35 AM 26.6 °F 21.2 °F 12.2 °F 55% 30.38 in 10.0 mi SW 4.6 mph - N/A   Clear
11:56 AM 26.6 °F 21.2 °F 12.2 °F 55% 30.37 in 10.0 mi SW 4.6 mph - N/A   Clear
12:18 PM 26.6 °F 19.1 °F 12.2 °F 55% 30.36 in 10.0 mi SSW 6.9 mph - N/A   Clear
12:39 PM 26.6 °F 21.2 °F 12.2 °F 55% 30.34 in 10.0 mi SSW 4.6 mph - N/A   Clear
1:00 PM 26.6 °F 20.0 °F 12.2 °F 55% 30.32 in 10.0 mi South 5.8 mph - N/A   Clear
1:21 PM 28.4 °F 24.6 °F 14.0 °F 55% 30.31 in 10.0 mi South 3.5 mph - N/A   Clear
1:43 PM 28.4 °F 24.6 °F 12.2 °F 51% 30.28 in 10.0 mi SSW 3.5 mph - N/A   Clear
2:04 PM 28.4 °F 20.4 °F 17.6 °F 64% 30.26 in 10.0 mi SSE 8.1 mph - N/A   Clear
2:25 PM 28.4 °F 22.2 °F 17.6 °F 64% 30.25 in 10.0 mi SSE 5.8 mph - N/A   Clear
2:46 PM 28.4 °F 23.3 °F 14.0 °F 55% 30.22 in 10.0 mi South 4.6 mph - N/A   Clear
3:08 PM 28.4 °F 23.3 °F 12.2 °F 51% 30.22 in 10.0 mi South 4.6 mph - N/A   Clear
3:29 PM 28.4 °F 21.2 °F 12.2 °F 51% 30.20 in 10.0 mi South 6.9 mph - N/A   Clear
3:50 PM 28.4 °F 19.1 °F 15.8 °F 59% 30.19 in 7.0 mi South 10.4 mph - N/A   Mostly Cloudy
4:10 PM 26.6 °F 17.5 °F 19.4 °F 74% 30.19 in 2.5 mi South 9.2 mph 17.3 mph N/A   Overcast
4:32 PM 24.8 °F 19.1 °F 21.2 °F 86% 30.19 in 1.5 mi SSW 4.6 mph - N/A   Overcast
4:54 PM 24.8 °F 20.5 °F 21.2 °F 86% 30.19 in 0.8 mi SW 3.5 mph - N/A   Overcast
5:15 PM 24.8 °F 20.5 °F 23.0 °F 93% 30.18 in 1.0 mi SW 3.5 mph - N/A   Overcast
5:36 PM 24.8 °F - 23.0 °F 93% 30.17 in 1.8 mi Calm Calm - N/A   Overcast
5:57 PM 24.8 °F 19.1 °F 23.0 °F 93% 30.15 in 1.2 mi South 4.6 mph - N/A   Overcast
6:19 PM 24.8 °F 20.5 °F 23.0 °F 93% 30.14 in 1.5 mi South 3.5 mph - N/A   Overcast
6:40 PM 24.8 °F - 23.0 °F 93% 30.14 in 1.8 mi Calm Calm - N/A   Overcast
7:01 PM 24.8 °F 20.5 °F 23.0 °F 93% 30.13 in 7.0 mi SW 3.5 mph - N/A   Overcast
7:22 PM 24.8 °F - 23.0 °F 93% 30.12 in 10.0 mi Calm Calm - N/A   Mostly Cloudy
7:44 PM 24.8 °F - 23.0 °F 93% 30.12 in 10.0 mi Calm Calm - N/A   Overcast
8:05 PM 24.8 °F - 23.0 °F 93% 30.11 in 10.0 mi Calm Calm - N/A   Mostly Cloudy
8:26 PM 23.0 °F - 23.0 °F 100% 30.11 in 10.0 mi Calm Calm - N/A   Overcast
8:47 PM 24.8 °F - 23.0 °F 93% 30.10 in 10.0 mi Calm Calm - N/A   Overcast
9:09 PM 23.0 °F - 23.0 °F 100% 30.09 in 10.0 mi Calm Calm - N/A   Scattered Clouds
9:30 PM 21.2 °F - 21.2 °F 100% 30.09 in 10.0 mi Calm Calm - N/A   Scattered Clouds
9:51 PM 21.2 °F - 21.2 °F 100% 30.09 in 10.0 mi Calm Calm - N/A   Mostly Cloudy
10:12 PM 23.0 °F - 21.2 °F 93% 30.09 in 10.0 mi Calm Calm - N/A   Overcast
10:34 PM 21.2 °F - 19.4 °F 93% 30.09 in 10.0 mi Calm Calm - N/A   Mostly Cloudy
10:55 PM 19.4 °F - 17.6 °F 93% 30.09 in 10.0 mi Calm Calm - N/A   Scattered Clouds
11:16 PM 17.6 °F - 15.8 °F 93% 30.09 in 7.0 mi Calm Calm - N/A   Scattered Clouds
11:59 PM 17.6 °F - 15.8 °F 93% 30.09 in 3.0 mi Calm Calm - N/A   Mostly Cloudy